ONEWEB-0503, 54121

Orbit data source: Space-Track

ONEWEB-0503, 54121 is a payload satellite owned by One Web (NAA) (UK) in LEO that was launched on Sat, 22 Oct 2022 UTC via a LVM3 launch vehicle from the Sirharikota (SRI). Payload-class satellites include a variety of spacecraft equipped with specific instruments for various scientific and technological missions. These include communications satellites like Starlink; space stations such as the ISS; scientific satellites like the Hubble; Earth observation satellites from companies like Planet Labs, Umbra, and HawkEye 360; GPS; miniature CubeSats for education and research; and military/defense satellites.

Loading next visibility...
Identifier
54121, 2022-138J
Orbit
LEO
Country
Flag of UKUK
Related business
Manufacturer
One Web
Mission
Operational Commercial Communications
Bus & Motor
ARROW, Unknown motor
Mass
148 kg wet, ~140 kg dry
Launch date (UTC)
2022-10-22 (4 years ago)
Launch vehicle
LVM3
Launch site
Sirharikota (SRI)
Object type
Payload
Rocket body
Debris
Shape & HBR
Trap Box + 2 Pan, 6.7 m
Radar Cross Section
3.464 m², Large (>1 m²)

Expand to show TLE details & history
Last TLE update: 2 days ago

TLE from 2 days ago
0 ONEWEB-0503
1 54121U 22138J   26171.40102700  .00000080  00000-0  16778-3 0  9990
2 54121  87.9185 304.3205 0001916  91.3899 268.7453 13.19725456177245
Epoch: 2026-06-20T09:37Z
TLE epoch observation values (Epoch: 2026-06-20T09:37:28.732Z)
Latitude
-0.00006°
Longitude
-108.6654°
Altitude
1,188.702 km
Speed
7.259 km/s
True Right ascension
20h 17m 16s
True Declination
0° 00' 00"
Sunlit
Object was in full shadow at epoch
Visualization orbit readout
Latitude
Unknown
Longitude
Unknown
Altitude
Unknown
Speed
Unknown
Apparent Right ascension
Unknown
Apparent Declination
Unknown
Sunlit
N/A
Visualization observer readout
Local Sidereal Time
21:29:41
Azimuth
Unknown
Elevation
Unknown
Doppler factor
Unknown
Orbital elements
Apogee altitude
1,184.323 km
Perigee altitude
1,181.426 km
Semi-major axis
7,561.012 km
Eccentricity
0.00019
Inclination
87.9185°
RAAN
304.3205°
Arg. of periapsis
91.3899°
True anomaly
268.72335°
Mean anomaly
268.7453°
Eccentric anomaly
268.73432°
Mean motion
3.30121 °/min
Orbital period
109.05 mins
BSTAR
0.00016778
Loading maneuver chart data...
Computing Atmospheric mass density...
Loading historical data...
Loading historical data...
Loading historical data...
Loading historical data...
Loading historical data...
Loading historical data...
Loading historical data...

Documentation

Showing up to 5 results
|